• In Czech Republic
  • List of Countries
  • For 7 days
  • Water Temperature
  • Satellite Maps
  • Weather Map
  • Weather Widgets
  • user-avatar
    Login

    Hourly Weather Gjirokaster

    Today, 27 July, Thursday

    Time Temperature Precipitation Wind Pressure Humidity
    00:00 +13°C° 0 mm 1 mps 647 mmHg 80%
    01:00 +12°C° 0 mm 1 mps 647 mmHg 82%
    02:00 +12°C° 0 mm 1 mps 647 mmHg 83%
    03:00 +12°C° 0 mm 1 mps 647 mmHg 84%
    04:00 +10°C° 0 mm 2 mps 647 mmHg 85%
    05:00 +13°C° 0 mm 2 mps 647 mmHg 78%
    06:00 +14°C° 0 mm 2 mps 647 mmHg 71%
    07:00 +16°C° 0 mm 2 mps 648 mmHg 64%
    08:00 +17°C° 0 mm 3 mps 648 mmHg 56%
    09:00 +19°C° 0 mm 3 mps 649 mmHg 48%
    10:00 +20°C° 0 mm 4 mps 649 mmHg 40%
    11:00 +21°C° 0 mm 5 mps 650 mmHg 39%
    12:00 +21°C° 0 mm 6 mps 650 mmHg 38%
    13:00 +22°C° 0 mm 6 mps 650 mmHg 37%
    14:00 +21°C° 0 mm 6 mps 650 mmHg 39%
    15:00 +21°C° 0 mm 6 mps 650 mmHg 42%
    16:00 +20°C° 0 mm 6 mps 650 mmHg 44%
    17:00 +19°C° 0 mm 5 mps 649 mmHg 50%
    18:00 +16°C° 0 mm 5 mps 649 mmHg 56%
    19:00 +14°C° 0 mm 4 mps 649 mmHg 62%
    20:00 +13°C° 0 mm 3 mps 649 mmHg 65%
    21:00 +12°C° 0 mm 3 mps 649 mmHg 67%
    22:00 +13°C° 0 mm 2 mps 649 mmHg 70%
    23:00 +12°C° 0 mm 2 mps 649 mmHg 70%

    Tomorrow, 28 July, Friday

    Time Temperature Precipitation Wind Pressure Humidity
    00:00 +12°C° 0 mm 2 mps 650 mmHg 70%
    01:00 +12°C° 0 mm 2 mps 650 mmHg 70%
    02:00 +12°C° 0 mm 2 mps 650 mmHg 71%
    03:00 +12°C° 0 mm 2 mps 650 mmHg 71%
    04:00 +12°C° 0 mm 2 mps 650 mmHg 71%
    05:00 +13°C° 0 mm 2 mps 650 mmHg 67%
    06:00 +14°C° 0 mm 3 mps 651 mmHg 62%
    07:00 +17°C° 0 mm 3 mps 651 mmHg 58%
    08:00 +19°C° 0 mm 3 mps 652 mmHg 51%
    09:00 +20°C° 0 mm 4 mps 653 mmHg 45%
    10:00 +22°C° 0 mm 4 mps 653 mmHg 38%
    11:00 +23°C° 0 mm 5 mps 653 mmHg 37%
    12:00 +23°C° 0 mm 5 mps 654 mmHg 35%
    13:00 +25°C° 0 mm 5 mps 654 mmHg 33%
    14:00 +25°C° 0 mm 5 mps 654 mmHg 34%
    15:00 +25°C° 0 mm 5 mps 654 mmHg 35%
    16:00 +23°C° 0 mm 5 mps 653 mmHg 36%
    17:00 +21°C° 0 mm 4 mps 653 mmHg 41%
    18:00 +19°C° 0 mm 4 mps 653 mmHg 46%
    19:00 +17°C° 0 mm 3 mps 653 mmHg 52%
    20:00 +17°C° 0 mm 3 mps 653 mmHg 53%
    21:00 +16°C° 0 mm 2 mps 653 mmHg 54%
    22:00 +15°C° 0 mm 2 mps 653 mmHg 55%
    23:00 +15°C° 0 mm 2 mps 653 mmHg 55%

    Day after tomorrow, 29 July, Saturday

    Time Temperature Precipitation Wind Pressure Humidity
    00:00 +15°C° 0 mm 2 mps 653 mmHg 55%
    01:00 +14°C° 0 mm 2 mps 654 mmHg 55%
    02:00 +14°C° 0 mm 2 mps 654 mmHg 55%
    03:00 +14°C° 0 mm 2 mps 653 mmHg 56%
    04:00 +14°C° 0 mm 2 mps 653 mmHg 57%
    05:00 +16°C° 0 mm 2 mps 654 mmHg 54%
    06:00 +18°C° 0 mm 2 mps 655 mmHg 51%
    07:00 +19°C° 0 mm 2 mps 656 mmHg 48%
    08:00 +22°C° 0 mm 1 mps 656 mmHg 44%
    09:00 +25°C° 0 mm 1 mps 657 mmHg 39%
    10:00 +27°C° 0 mm 1 mps 657 mmHg 34%
    11:00 +27°C° 0 mm 2 mps 657 mmHg 33%
    12:00 +28°C° 0 mm 2 mps 657 mmHg 32%
    13:00 +29°C° 0 mm 2 mps 657 mmHg 30%
    14:00 +28°C° 0 mm 2 mps 657 mmHg 32%
    15:00 +28°C° 0 mm 3 mps 657 mmHg 33%
    16:00 +27°C° 0 mm 3 mps 657 mmHg 34%
    17:00 +25°C° 0 mm 2 mps 656 mmHg 40%
    18:00 +23°C° 0 mm 2 mps 656 mmHg 46%
    19:00 +21°C° 0 mm 1 mps 656 mmHg 52%
    20:00 +20°C° 0 mm 1 mps 656 mmHg 53%
    21:00 +20°C° 0 mm 1 mps 656 mmHg 55%
    22:00 +19°C° 0 mm 1 mps 656 mmHg 57%
    23:00 +19°C° 0 mm 1 mps 656 mmHg 56%

    30 July, Sunday

    Time Temperature Precipitation Wind Pressure Humidity
    00:00 +18°C° 0 mm 1 mps 656 mmHg 56%
    01:00 +18°C° 0 mm 1 mps 655 mmHg 56%
    02:00 +18°C° 0 mm 1 mps 655 mmHg 56%
    03:00 +18°C° 0 mm 1 mps 655 mmHg 55%
    04:00 +16°C° 0 mm 1 mps 655 mmHg 54%
    05:00 +19°C° 0 mm 1 mps 656 mmHg 51%
    06:00 +21°C° 0 mm 1 mps 656 mmHg 48%
    07:00 +22°C° 0 mm 1 mps 656 mmHg 45%
    08:00 +24°C° 0 mm 1 mps 657 mmHg 41%
    09:00 +26°C° 0 mm 1 mps 657 mmHg 37%
    10:00 +28°C° 0 mm 1 mps 658 mmHg 33%
    11:00 +28°C° 0 mm 2 mps 657 mmHg 32%
    12:00 +29°C° 0 mm 2 mps 657 mmHg 31%
    13:00 +29°C° 0 mm 3 mps 657 mmHg 30%
    14:00 +29°C° 0 mm 3 mps 657 mmHg 32%
    15:00 +28°C° 0 mm 3 mps 656 mmHg 34%
    16:00 +28°C° 0 mm 3 mps 656 mmHg 36%
    17:00 +26°C° 0 mm 2 mps 656 mmHg 41%
    18:00 +24°C° 0 mm 2 mps 655 mmHg 47%
    19:00 +21°C° 0 mm 2 mps 655 mmHg 52%
    20:00 +20°C° 0 mm 2 mps 655 mmHg 54%
    21:00 +20°C° 0 mm 1 mps 655 mmHg 55%
    22:00 +20°C° 0 mm 1 mps 655 mmHg 57%
    23:00 +19°C° 0 mm 1 mps 655 mmHg 58%

    31 July, Monday

    Time Temperature Precipitation Wind Pressure Humidity
    00:00 +19°C° 0 mm 1 mps 655 mmHg 58%
    01:00 +19°C° 0 mm 1 mps 654 mmHg 59%
    02:00 +18°C° 0 mm 1 mps 654 mmHg 59%
    03:00 +18°C° 0 mm 1 mps 654 mmHg 60%
    04:00 +17°C° 0 mm 2 mps 654 mmHg 60%
    05:00 +19°C° 0 mm 1 mps 654 mmHg 56%
    06:00 +21°C° 0 mm 1 mps 655 mmHg 52%
    07:00 +23°C° 0 mm 1 mps 655 mmHg 48%
    08:00 +25°C° 0 mm 1 mps 655 mmHg 44%
    09:00 +26°C° 0 mm 2 mps 656 mmHg 39%
    10:00 +28°C° 0 mm 2 mps 656 mmHg 35%
    11:00 +29°C° 0 mm 2 mps 656 mmHg 33%
    12:00 +30°C° 0 mm 3 mps 656 mmHg 32%
    13:00 +30°C° 0 mm 4 mps 656 mmHg 30%
    14:00 +30°C° 0 mm 4 mps 655 mmHg 32%
    15:00 +29°C° 0 mm 4 mps 655 mmHg 33%
    16:00 +29°C° 0 mm 4 mps 655 mmHg 34%
    17:00 +27°C° 0 mm 3 mps 654 mmHg 39%
    18:00 +25°C° 0 mm 3 mps 654 mmHg 44%
    19:00 +23°C° 0 mm 2 mps 654 mmHg 49%
    20:00 +21°C° 0 mm 2 mps 654 mmHg 51%
    21:00 +20°C° 0 mm 2 mps 654 mmHg 53%
    22:00 +20°C° 0 mm 2 mps 654 mmHg 55%
    23:00 +19°C° 0 mm 2 mps 654 mmHg 57%

    1 August, Tuesday

    Time Temperature Precipitation Wind Pressure Humidity
    00:00 +19°C° 0 mm 2 mps 654 mmHg 58%
    01:00 +18°C° 0 mm 2 mps 654 mmHg 60%
    02:00 +18°C° 0 mm 2 mps 653 mmHg 61%
    03:00 +18°C° 0 mm 2 mps 653 mmHg 61%
    04:00 +17°C° 0 mm 2 mps 653 mmHg 62%
    05:00 +20°C° 0 mm 1 mps 654 mmHg 58%
    06:00 +21°C° 0 mm 1 mps 654 mmHg 54%
    07:00 +23°C° 0 mm 1 mps 655 mmHg 50%
    08:00 +25°C° 0 mm 1 mps 655 mmHg 45%
    09:00 +26°C° 0 mm 1 mps 655 mmHg 41%
    10:00 +28°C° 0 mm 1 mps 656 mmHg 36%
    11:00 +29°C° 0 mm 2 mps 656 mmHg 35%
    12:00 +29°C° 0 mm 2 mps 656 mmHg 33%
    13:00 +30°C° 0 mm 3 mps 655 mmHg 32%
    14:00 +29°C° 0 mm 3 mps 655 mmHg 34%
    15:00 +29°C° 0 mm 3 mps 655 mmHg 37%
    16:00 +28°C° 0 mm 2 mps 654 mmHg 39%
    17:00 +26°C° 0 mm 2 mps 654 mmHg 45%
    18:00 +24°C° 0 mm 2 mps 654 mmHg 51%
    19:00 +22°C° 0 mm 1 mps 653 mmHg 56%
    20:00 +22°C° 0 mm 1 mps 654 mmHg 58%
    21:00 +21°C° 0 mm 1 mps 654 mmHg 60%
    22:00 +20°C° 0 mm 1 mps 654 mmHg 62%
    23:00 +20°C° 0 mm 1 mps 654 mmHg 62%
    Show more